Weather in Ivanovskaya

Russia / Moscow Oblast     55°16′53″N   39°07′01″E
temp.,
°C
wind,
m/s
gust,
m/s
humid.,
%
clouds,
%
prec.,
mm/h
press.,
hPa
HPBL,
m
17 may, mon
mon1700:00+14e0086100 0.0 101411
03:00+13ene22875 0.0 101420
06:00+15e268761 0.0 1014143
09:00+18ene388857 1.4 1014324
12:00+25ese575746 0.0 10131055
15:00+28se5104845 0.0 10112200
18:00+25se510598 0.0 1010732
21:00+20se41575100 0.0 1010473
18 may, tue
tue1800:00+17ese31290100 0.0 1011256
03:00+15ese4148358 0.0 1010290
06:00+16ese414725 0.0 1010347
09:00+22se5135569 0.0 1010598
12:00+26se594017 0.0 1010856
15:00+27se510425 0.0 10092284
18:00+24ese5124943 0.0 10081075
21:00+21ese515640 0.0 1008695
19 may, wed
wed1900:00+17ese414805 0.0 1008449
03:00+15ese38890 0.0 1008166
06:00+16se278430 0.0 1009232
09:00+20ese51064100 0.0 1008609
12:00+25se61446100 0.0 10071728
15:00+26se61350100 0.0 10061958
18:00+21sse51176100 0.5 1006942
21:00+18se311845 0.5 1007316
20 may, thu
thu2000:00+15se379711 0.0 1008155
03:00+14ese2697100 0.0 1008124
06:00+15se31195100 0.4 1008536
09:00+18se587582 0.4 10081038
12:00+19sse5963100 0.8 10081453
15:00+20sse576050 0.9 10071451
18:00+18sse4774100 0.7 1007877
21:00+13se3109512 1.6 1007269
21 may, fri
fri2100:00+12s3109869 0.8 1007324
03:00+11ssw5119795 0.9 1008596
06:00+10ssw6109183 0.3 1009832
09:00+10ssw61188100 0.4 10111037
12:00+12sw71378100 0.2 10131283
15:00+12sw61180100 0.3 10151016
18:00+12wsw487891 0.1 1017949
21:00+11w3784100 0.1 1019462